Regional Weather Roundup
Issued by NWS

Home | Current Version | Previous Version | Graphics & Text | Print | Product List | Glossary Off
Versions: 1 2 3 4 5 6 7 8 9 10 11 12 13 14 15 16 17 18 19 20 21 22 23 24 25 26 27 28 29 30 31 32 33 34 35 36 37 38 39 40 41 42 43 44 45 46 47 48 49 50

000
ASUS45 KTFX 290904
RWRMT
MONTANA HOURLY WEATHER ROUNDUP
NATIONAL WEATHER SERVICE GREAT FALLS MT
204 AM MST THU JAN 29 2015

NOTE: "FAIR" INDICATES FEW OR NO CLOUDS BELOW 12000 FEET WITH NO
SIGNIFICANT WEATHER AND/OR OBSTRUCTIONS TO VISIBILITY.

* THESE STATIONS ARE NOT UNDER NWS QUALITY CONTROL. THEY DO NOT
   REPORT WEATHER SUCH AS PRECIPITATION OR FOG.

MTZ001>007-043-291000-
WEST OF THE DIVIDE
CITY           SKY/WX    TMP DP  RH WIND       PRES   REMARKS
KALISPELL      FOG       16  12  84 CALM      30.44R VSB 1
MISSOULA       PTCLDY    27  23  85 CALM      30.46R
BUTTE          PTCLDY    21  18  88 CALM      30.40S
MULLAN PASS    CLEAR     27  25  92 S6        30.35S WCI  20
* ANACONDA     PTCLDY    27  19  72 S7         N/A   WCI  19
* ESSEX        N/A       20  19  96 N/A        N/A
* LINCOLN      N/A       18  16  92 NE1        N/A
* LOOKOUT PASS N/A       25  24  96 S1         N/A
* POLSON       N/A       28  25  89 N/A        N/A
* RONAN APT    CLEAR     25  21  85 N/A        N/A
* SEELEY LAKE  N/A       14  11  88 N/A        N/A
* THOMP F APT  CLEAR     25  22  88 NE1G8      N/A
$$

MTZ008-052>055-291000-
SOUTHWEST MONTANA
CITY           SKY/WX    TMP DP  RH WIND       PRES   REMARKS
BOZEMAN        CLEAR     25  21  85 S8        30.41S WCI  16
DILLON         PTCLDY    27  21  78 S9        30.39S WCI  18
* W YELLOWSTON PTCLDY    27  26  96 N/A        N/A
* THREE FORKS  CLEAR     23  23 100 N/A        N/A
* BOULDER HILL N/A       26  16  66 S6         N/A   WCI  19
* MONIDA PASS  N/A       25  25 100 S1         N/A
* RAYNOLDS PAS N/A       28  -2  27 N/A        N/A
* WHITEHALL    N/A       24  19  81 NW3G9      N/A
* WISE RIVER   N/A       20  16  84 W3         N/A
$$

MTZ009>010-012-014-046-048-049-054-291000-
EAST SLOPES AND CENTRAL MONTANA
CITY           SKY/WX    TMP DP  RH WIND       PRES   REMARKS
CUT BANK       FOG       23  21  92 CALM      30.33S
GREAT FALLS    FOG       28  27  96 S9        30.35F WCI  19
HELENA         CLEAR     27  21  78 CALM      30.40S
MALMSTROM AFB  CLEAR     25  23  92 S7        30.36F WCI  17
* DEARBORN     N/A       26  24  92 S2         N/A
* EAST GLACIER N/A       32  23  69 W14G20     N/A   WCI  22
* MONARCH      N/A       25  20  81 S10        N/A   WCI  15
* PENDROY      N/A       24  24 100 NW4        N/A
* ROGERS PASS  N/A       29  20  69 E11G17     N/A   WCI  19
* SWEET GRASS  N/A       27  27 100 S12        N/A   WCI  16
$$

MTZ011-013-016-021-035-040-045-047-050-051-291000-
NORTH CENTRAL MONTANA
CITY           SKY/WX    TMP DP  RH WIND       PRES   REMARKS
HAVRE          CLEAR     25  25 100 CALM      30.40S
LEWISTOWN      CLEAR     25  21  85 E6        30.38S WCI  18
* N BAR RANCH  CLEAR     27  21  78 NW6       30.39F WCI  20
* CHESTER      N/A       24  22  92 W2         N/A
* DENTON       N/A       22  22 100 S2         N/A
* GEYSER       N/A       23  21  92 S5         N/A   WCI  16
* JUDITH GAP   N/A       27  25  92 SE4        N/A
* LOMA         N/A       25  25 100 NE5        N/A   WCI  19
$$

MTZ017>020-022>027-061-062-291000-
NORTHEAST MONTANA
CITY           SKY/WX    TMP DP  RH WIND       PRES   REMARKS
GLASGOW        FOG       25  21  85 W5        30.42R WCI  19
GLENDIVE       FAIR      28  23  81 NW10      30.41R WCI  19
JORDAN         CLEAR     23  21  92 W5        30.42S WCI  16
SIDNEY         CLOUDY    30  21  69 W7        30.43R WCI  23
WOLF POINT     CLEAR     27  21  78 W5        30.43R WCI  21
* BEAVER HILL  N/A       29  24  82 NW14       N/A   WCI  18
* CIRCLE       N/A       26  24  92 N/A        N/A
* LINDSAY DVD  N/A       25  25 100 NW13       N/A   WCI  13
* NAVAJO       N/A       23  19  85 NW12G17    N/A   WCI  11
* SACO         N/A       23  22  96 SE6        N/A   WCI  16
$$

MTZ028>042-056>058-291000-
SOUTHCENTRAL AND SOUTHEAST MONTANA
CITY           SKY/WX    TMP DP  RH WIND       PRES   REMARKS
BAKER          PTCLDY    28  23  81 NW13      30.39R WCI  17
BILLINGS       PTCLDY    36  27  70 SW6       30.42S WCI  31
LIVINGSTON     CLEAR     27  23  85 CALM      30.39S
MILES CITY     FAIR      27  23  85 SW5       30.43R WCI  21
* LAUREL APT   PTCLDY    34  19  54 N/A        N/A
* ROUNDUP APT  CLEAR     28  21  75 N/A        N/A
* ALZADA       N/A       28  26  92 W9         N/A   WCI  19
* HYSHAM       N/A       31  28  89 W1         N/A
* LAME DEER    N/A       29  25  85 W5         N/A   WCI  24
* REED POINT   N/A       27  24  88 N/A        N/A
* ROSCOE HILL  N/A       29  23  78 SE3        N/A
$$

REGIONAL REPORTS...DAKOTAS
CITY           SKY/WX    TMP DP  RH WIND       PRES   REMARKS
WILLISTON      CLOUDY    28  19  69 NW15      30.40R WCI  16
DICKINSON      CLOUDY    32  23  69 NW17G25   30.31R WCI  21
CROSBY         CLOUDY    25  25 100 NW10      30.37R WCI  15
WATFORD CITY   CLOUDY    28  23  81 W12G18    30.36R WCI  18
BISMARCK       CLOUDY    30  27  89 NW20G25   30.31R WCI  17
GRAND FORKS    CLOUDY    21  16  81 N17G26    30.23R WCI   7
FARGO          CLOUDY    27  21  78 NW24      30.18R WCI  12
BUFFALO SD     PTCLDY    34  23  64 NW20      30.29R WCI  23
RAPID CITY     MOCLDY    34  25  70 N24G33    30.35R WCI  22
$$

REGIONAL REPORTS...WYOMING/IDAHO/WASHINGTON
CITY           SKY/WX    TMP DP  RH WIND       PRES   REMARKS
GILLETTE       PTCLDY    27  19  72 CALM      30.41R
SHERIDAN       CLEAR     27  21  78 CALM      30.42S
CODY           PTCLDY    30  28  92 S6        30.39S WCI  24
YELLOWSTONE LA PTCLDY    19  18  96 CALM      30.41R
SALMON         CLOUDY    16  12  84 CALM      30.46R VSB M1/4
MULLAN PASS    CLEAR     27  25  92 S6        30.35S WCI  20
SAND POINT     FOG       32  32 100 N5        30.47S VSB M1/4 WCI  27
SPOKANE        FOG       32  32 100 NE9       30.42F VSB M1/4 WCI  24

$$



USA.gov is the U.S. government's official web portal to all federal, state and local government web resources and services.